START_TIME,STEP,MOV.,AL01,t_acc.,AL02,t_acc.,E37,t_acc.,H21,t_acc.
1979-07-29 12:00:33.410 ,0,0,1.,24.0,1.,24.0,2.,24.0,0.,24.0
1979-07-29 12:00:57.410 ,1,1,0.,24.0,0.,24.0,0.,24.0,0.,24.0
1979-07-29 12:01:21.410 ,1,0,0.,24.0,0.,24.0,2.,24.0,0.,24.0
1979-07-29 12:01:45.410 ,2,1,0.,24.0,0.,24.0,4.,24.0,0.,24.0
1979-07-29 12:02:09.410 ,2,0,1.,24.0,0.,24.0,2.,24.0,0.,24.0
1979-07-29 12:02:33.410 ,3,1,0.,24.0,0.,24.0,4.,24.0,0.,24.0
1979-07-29 12:02:57.410 ,3,0,0.,24.0,0.,24.0,4.,24.0,0.,24.0
1979-07-29 12:03:21.410 ,4,1,0.,24.0,0.,24.0,4.,24.0,0.,24.0
1979-07-29 12:03:45.410 ,4,0,0.,24.0,0.,24.0,4.,24.0,0.,24.0
1979-07-29 12:04:09.410 ,5,1,0.,24.0,0.,24.0,0.,24.0,0.,24.0
1979-07-29 12:04:33.410 ,5,0,0.,24.0,0.,24.0,4.,24.0,0.,24.0
1979-07-29 12:04:57.410 ,6,1,0.,24.0,0.,24.0,4.,24.0,0.,24.0
1979-07-29 12:05:45.410 ,7,1,3.,24.0,0.,24.0,3.,24.0,0.,24.0
1979-07-29 12:06:09.410 ,7,0,35.,24.0,0.,24.0,1.,24.0,0.,24.0
1979-07-29 12:06:33.410 ,7,1,26.,24.0,0.,24.0,6.,24.0,0.,24.0
1979-07-29 12:06:57.410 ,7,0,27.,24.0,0.,24.0,3.,24.0,0.,24.0
1979-07-29 12:07:21.410 ,6,1,23.,24.0,0.,24.0,3.,24.0,0.,24.0
1979-07-29 12:07:45.410 ,6,0,1.,24.0,0.,24.0,1.,24.0,0.,24.0
1979-07-29 12:08:09.410 ,5,1,0.,24.0,0.,24.0,1.,24.0,0.,24.0
1979-07-29 12:08:33.410 ,5,0,0.,24.0,0.,24.0,2.,24.0,0.,24.0
1979-07-29 12:08:57.410 ,4,1,0.,24.0,0.,24.0,0.,24.0,0.,24.0
1979-07-29 12:09:21.410 ,4,0,0.,24.0,0.,24.0,1.,24.0,0.,24.0
1979-07-29 12:09:45.410 ,3,1,1.,24.0,0.,24.0,1.,24.0,0.,24.0
1979-07-29 12:10:09.410 ,3,0,0.,24.0,0.,24.0,1.,24.0,0.,24.0
1979-07-29 12:10:33.410 ,2,1,0.,24.0,0.,24.0,1.,24.0,0.,24.0
1979-07-29 12:10:57.410 ,2,0,0.,24.0,0.,24.0,0.,24.0,0.,24.0
1979-07-29 12:11:21.410 ,1,1,0.,24.0,0.,24.0,2.,24.0,0.,24.0
1979-07-29 12:11:45.410 ,1,0,0.,24.0,0.,24.0,2.,24.0,0.,24.0
1979-07-29 12:12:09.410 ,0,1,0.,24.0,0.,24.0,1.,24.0,0.,24.0
1979-07-29 12:12:33.410 ,0,0,1.,24.0,0.,24.0,1.,24.0,0.,24.0
1979-07-29 12:12:57.410 ,0,1,0.,24.0,0.,24.0,1.,24.0,0.,24.0
1979-07-29 12:13:21.410 ,0,0,0.,24.0,0.,24.0,3.,24.0,0.,24.0
1979-07-29 12:13:45.410 ,1,1,0.,24.0,0.,24.0,3.,24.0,0.,24.0
1979-07-29 12:14:09.410 ,1,0,1.,24.0,0.,24.0,4.,24.0,0.,24.0
1979-07-29 12:14:33.410 ,2,1,0.,24.0,0.,24.0,5.,24.0,0.,24.0
1979-07-29 12:14:57.410 ,2,0,0.,24.0,0.,24.0,2.,24.0,0.,24.0
1979-07-29 12:15:21.410 ,3,1,0.,24.0,0.,24.0,3.,24.0,0.,24.0
1979-07-29 12:15:45.410 ,0,0,0.,24.0,0.,24.0,3.,24.0,0.,24.0
1979-07-29 12:16:09.410 ,4,1,0.,24.0,0.,24.0,2.,24.0,0.,24.0
1979-07-29 12:16:33.410 ,4,0,0.,24.0,0.,24.0,2.,24.0,0.,24.0
1979-07-29 12:16:57.410 ,5,1,0.,24.0,0.,24.0,2.,24.0,0.,24.0
1979-07-29 12:17:21.410 ,5,0,0.,24.0,0.,24.0,6.,24.0,0.,24.0
1979-07-29 12:17:45.410 ,6,1,0.,24.0,0.,24.0,4.,24.0,0.,24.0
1979-07-29 12:18:09.410 ,6,0,0.,24.0,0.,24.0,0.,24.0,0.,24.0
1979-07-29 12:18:33.410 ,7,0,9.,24.0,0.,24.0,3.,24.0,0.,24.0
1979-07-29 12:18:57.410 ,7,0,31.,24.0,0.,24.0,1.,24.0,0.,24.0
1979-07-29 12:19:21.410 ,5,1,11.,24.0,0.,24.0,3.,24.0,0.,24.0
1979-07-29 12:19:45.410 ,1,1,0.,24.0,0.,24.0,3.,24.0,0.,24.0
1979-07-29 12:20:09.410 ,2,1,1.,24.0,0.,24.0,1.,24.0,0.,24.0
1979-07-29 12:20:33.410 ,6,1,0.,24.0,0.,24.0,1.,24.0,0.,24.0
1979-07-29 12:20:57.410 ,5,1,11.,24.0,0.,24.0,3.,24.0,0.,24.0
1979-07-29 12:21:21.410 ,1,1,0.,24.0,0.,24.0,1.,24.0,0.,24.0
1979-07-29 12:21:45.410 ,2,1,1.,24.0,0.,24.0,1.,24.0,0.,24.0
1979-07-29 12:22:09.410 ,6,1,0.,24.0,0.,24.0,3.,24.0,0.,24.0
1979-07-29 12:22:33.410 ,5,1,13.,24.0,0.,24.0,2.,24.0,0.,24.0
1979-07-29 12:22:57.410 ,1,1,0.,24.0,0.,24.0,0.,24.0,0.,24.0
1979-07-29 12:23:21.410 ,2,1,0.,24.0,0.,24.0,2.,24.0,0.,24.0
1979-07-29 12:23:45.410 ,6,1,0.,24.0,0.,24.0,2.,24.0,0.,24.0
1979-07-29 12:24:33.410 ,1,1,0.,24.0,0.,24.0,1.,24.0,0.,24.0
1979-07-29 12:24:57.410 ,2,1,0.,24.0,0.,24.0,1.,24.0,0.,24.0
1979-07-29 12:25:21.410 ,6,1,0.,24.0,0.,24.0,6.,24.0,0.,24.0
1979-07-29 12:25:45.410 ,5,1,18.,24.0,0.,24.0,1.,24.0,0.,24.0
1979-07-29 12:26:09.410 ,1,1,0.,24.0,0.,24.0,3.,24.0,0.,24.0
1979-07-29 12:26:33.410 ,2,1,0.,24.0,0.,24.0,0.,24.0,0.,24.0
1979-07-29 12:26:57.410 ,6,1,0.,24.0,0.,24.0,0.,24.0,0.,24.0
1979-07-29 12:27:21.410 ,5,1,18.,24.0,0.,24.0,0.,24.0,0.,24.0
1979-07-29 12:27:45.410 ,1,1,0.,24.0,0.,24.0,0.,24.0,0.,24.0
1979-07-29 12:28:09.410 ,2,1,0.,24.0,0.,24.0,3.,24.0,0.,24.0
1979-07-29 12:28:33.410 ,6,1,0.,24.0,0.,24.0,1.,24.0,0.,24.0
1979-07-29 12:28:57.410 ,5,1,11.,24.0,0.,24.0,0.,24.0,0.,24.0
1979-07-29 12:29:21.410 ,1,1,1.,24.0,1.,24.0,1.,24.0,0.,24.0
1979-07-29 12:29:45.410 ,0,0,0.,24.0,0.,24.0,2.,24.0,0.,24.0
1979-07-29 12:30:09.410 ,0,0,0.,24.0,0.,24.0,2.,24.0,0.,24.0
1979-07-29 12:30:33.410 ,5,1,11.,24.0,0.,24.0,2.,24.0,0.,24.0
1979-07-29 12:30:57.410 ,5,0,0.,24.0,0.,24.0,5.,24.0,0.,24.0
1979-07-29 12:31:21.410 ,4,1,0.,24.0,0.,24.0,2.,24.0,0.,24.0
1979-07-29 12:31:45.410 ,4,0,0.,24.0,0.,24.0,2.,24.0,0.,24.0
1979-07-29 12:32:09.410 ,3,1,0.,24.0,0.,24.0,0.,24.0,0.,24.0
1979-07-29 12:32:33.410 ,3,0,0.,24.0,0.,24.0,0.,24.0,0.,24.0
1979-07-29 12:32:57.410 ,2,1,0.,24.0,0.,24.0,3.,24.0,0.,24.0
1979-07-29 12:33:21.410 ,2,0,0.,24.0,0.,24.0,5.,24.0,0.,24.0
1979-07-29 12:33:45.410 ,1,1,0.,24.0,0.,24.0,1.,24.0,0.,24.0
1979-07-29 12:34:09.410 ,1,0,0.,24.0,0.,24.0,1.,24.0,0.,24.0
1979-07-29 12:34:33.410 ,0,1,0.,24.0,1.,24.0,2.,24.0,0.,24.0
1979-07-29 12:34:57.410 ,0,0,0.,24.0,0.,24.0,4.,24.0,0.,24.0
1979-07-29 12:35:21.410 ,0,1,0.,24.0,0.,24.0,1.,24.0,0.,24.0
1979-07-29 12:35:45.410 ,0,0,2.,24.0,0.,24.0,2.,24.0,0.,24.0
1979-07-29 12:36:09.410 ,1,1,1.,24.0,0.,24.0,2.,24.0,0.,24.0
1979-07-29 12:36:33.410 ,1,0,1.,24.0,0.,24.0,2.,24.0,0.,24.0
1979-07-29 12:36:57.410 ,2,1,0.,24.0,0.,24.0,1.,24.0,0.,24.0
1979-07-29 12:37:21.410 ,2,0,0.,24.0,0.,24.0,2.,24.0,0.,24.0
1979-07-29 12:37:45.410 ,3,1,1.,24.0,0.,24.0,0.,24.0,0.,24.0
1979-07-29 12:38:09.410 ,3,0,1.,24.0,0.,24.0,0.,24.0,0.,24.0
1979-07-29 12:38:33.410 ,4,1,0.,24.0,0.,24.0,1.,24.0,0.,24.0
1979-07-29 12:38:57.410 ,4,0,1.,24.0,0.,24.0,2.,24.0,0.,24.0
1979-07-29 12:39:21.410 ,5,1,0.,24.0,0.,24.0,1.,24.0,0.,24.0
1979-07-29 12:39:45.410 ,5,0,0.,24.0,0.,24.0,3.,24.0,0.,24.0
1979-07-29 12:40:09.410 ,6,1,0.,24.0,0.,24.0,0.,24.0,0.,24.0
1979-07-29 12:40:33.410 ,6,0,0.,24.0,0.,24.0,2.,24.0,0.,24.0
1979-07-29 12:40:57.410 ,7,1,7.,24.0,0.,24.0,0.,24.0,0.,24.0
1979-07-29 12:41:21.410 ,7,0,31.,24.0,0.,24.0,1.,24.0,0.,24.0
1979-07-29 12:41:45.410 ,7,1,33.,24.0,0.,24.0,2.,24.0,0.,24.0
1979-07-29 12:42:09.410 ,7,0,25.,24.0,0.,24.0,2.,24.0,0.,24.0
1979-07-29 12:42:33.410 ,6,1,34.,24.0,0.,24.0,3.,24.0,0.,24.0
1979-07-29 12:42:57.410 ,6,0,1.,24.0,0.,24.0,1.,24.0,0.,24.0
1979-07-29 12:43:21.410 ,5,1,0.,24.0,1.,24.0,1.,24.0,0.,24.0
1979-07-29 12:43:45.410 ,5,0,0.,24.0,0.,24.0,3.,24.0,0.,24.0
1979-07-29 12:44:09.410 ,4,1,0.,24.0,0.,24.0,4.,24.0,0.,24.0
1979-07-29 12:44:33.410 ,4,0,0.,24.0,0.,24.0,2.,24.0,0.,24.0
1979-07-29 12:44:57.410 ,3,1,0.,24.0,0.,24.0,2.,24.0,0.,24.0
1979-07-29 12:45:21.410 ,3,0,0.,24.0,0.,24.0,2.,24.0,0.,24.0
1979-07-29 12:45:45.410 ,2,1,0.,24.0,0.,24.0,0.,24.0,0.,24.0
1979-07-29 12:46:09.410 ,2,0,0.,24.0,0.,24.0,0.,24.0,0.,24.0
1979-07-29 12:46:33.410 ,1,1,0.,24.0,0.,24.0,0.,24.0,0.,24.0
1979-07-29 12:46:57.410 ,1,0,0.,24.0,0.,24.0,0.,24.0,0.,24.0
1979-07-29 12:47:21.410 ,0,1,0.,24.0,0.,24.0,0.,24.0,0.,24.0
1979-07-29 12:47:45.410 ,0,0,0.,24.0,0.,24.0,3.,24.0,0.,24.0
1979-07-29 12:48:09.410 ,0,1,0.,24.0,0.,24.0,1.,24.0,0.,24.0
1979-07-29 12:48:33.410 ,0,0,0.,24.0,0.,24.0,1.,24.0,0.,24.0
1979-07-29 12:48:57.410 ,1,1,1.,24.0,0.,24.0,1.,24.0,0.,24.0
1979-07-29 12:49:21.410 ,1,0,0.,24.0,0.,24.0,1.,24.0,0.,24.0
1979-07-29 12:49:45.410 ,2,1,0.,24.0,1.,24.0,1.,24.0,0.,24.0
1979-07-29 12:50:09.410 ,2,0,0.,24.0,0.,24.0,1.,24.0,0.,24.0
1979-07-29 12:50:33.410 ,3,1,0.,24.0,0.,24.0,0.,24.0,0.,24.0
1979-07-29 12:50:57.410 ,3,0,0.,24.0,0.,24.0,1.,24.0,0.,24.0
1979-07-29 12:51:21.410 ,4,1,0.,24.0,0.,24.0,2.,24.0,0.,24.0
1979-07-29 12:51:45.410 ,4,0,0.,24.0,0.,24.0,1.,24.0,0.,24.0
1979-07-29 12:52:09.410 ,5,1,0.,24.0,0.,24.0,3.,24.0,0.,24.0
1979-07-29 12:52:33.410 ,5,0,0.,24.0,0.,24.0,1.,24.0,0.,24.0
1979-07-29 12:52:57.410 ,6,1,0.,24.0,0.,24.0,3.,24.0,0.,24.0
1979-07-29 12:53:21.410 ,6,0,0.,24.0,0.,24.0,1.,24.0,0.,24.0
1979-07-29 12:53:45.410 ,7,1,8.,24.0,0.,24.0,3.,24.0,0.,24.0
1979-07-29 12:54:09.410 ,7,0,27.,24.0,0.,24.0,3.,24.0,0.,24.0
1979-07-29 12:54:33.410 ,7,1,32.,24.0,0.,24.0,2.,24.0,0.,24.0
1979-07-29 12:54:57.410 ,7,0,29.,24.0,0.,24.0,2.,24.0,0.,24.0
1979-07-29 12:55:21.410 ,6,1,23.,24.0,0.,24.0,2.,24.0,0.,24.0
1979-07-29 12:55:45.410 ,6,0,0.,24.0,0.,24.0,1.,24.0,0.,24.0
1979-07-29 12:56:09.410 ,5,1,0.,24.0,0.,24.0,0.,24.0,0.,24.0
1979-07-29 12:56:33.410 ,5,0,0.,24.0,0.,24.0,1.,24.0,0.,24.0
1979-07-29 12:56:57.410 ,4,1,0.,24.0,0.,24.0,0.,24.0,0.,24.0
1979-07-29 12:57:21.410 ,4,0,0.,24.0,0.,24.0,2.,24.0,0.,24.0
1979-07-29 12:57:45.410 ,3,1,0.,24.0,0.,24.0,3.,24.0,0.,24.0
1979-07-29 12:58:09.410 ,3,0,0.,24.0,0.,24.0,2.,24.0,0.,24.0
1979-07-29 12:58:33.410 ,2,1,0.,24.0,0.,24.0,1.,24.0,0.,24.0
1979-07-29 12:58:57.410 ,2,0,0.,24.0,0.,24.0,1.,24.0,0.,24.0
1979-07-29 12:59:21.410 ,1,1,0.,24.0,0.,24.0,2.,24.0,0.,24.0
1979-07-29 12:59:45.410 ,1,0,0.,24.0,0.,24.0,3.,24.0,0.,24.0
1979-07-29 13:00:09.410 ,0,1,0.,24.0,0.,24.0,1.,24.0,0.,24.0
1979-07-29 13:00:33.410 ,0,0,,0,,0,,0,,0
1979-07-29 13:00:57.410 ,0,1,0.,24.0,0.,24.0,1.,24.0,0.,24.0
1979-07-29 13:01:21.410 ,0,0,0.,24.0,0.,24.0,0.,24.0,0.,24.0
1979-07-29 13:01:45.410 ,1,1,0.,24.0,0.,24.0,2.,24.0,0.,24.0
1979-07-29 13:02:09.410 ,1,0,0.,24.0,0.,24.0,0.,24.0,0.,24.0
1979-07-29 13:02:33.410 ,2,1,0.,24.0,0.,24.0,1.,24.0,0.,24.0
1979-07-29 13:02:57.410 ,2,0,1.,24.0,0.,24.0,2.,24.0,0.,24.0
1979-07-29 13:03:21.410 ,3,1,0.,24.0,0.,24.0,0.,24.0,0.,24.0
1979-07-29 13:03:45.410 ,3,0,0.,24.0,0.,24.0,2.,24.0,0.,24.0
1979-07-29 13:04:09.410 ,4,1,0.,24.0,0.,24.0,0.,24.0,0.,24.0
1979-07-29 13:04:33.410 ,4,0,0.,24.0,0.,24.0,2.,24.0,0.,24.0
1979-07-29 13:04:57.410 ,5,1,0.,24.0,0.,24.0,4.,24.0,0.,24.0
1979-07-29 13:05:21.410 ,5,0,1.,24.0,0.,24.0,1.,24.0,0.,24.0
1979-07-29 13:05:45.410 ,6,1,1.,24.0,0.,24.0,0.,24.0,0.,24.0
1979-07-29 13:06:09.410 ,6,0,0.,24.0,0.,24.0,0.,24.0,0.,24.0
1979-07-29 13:06:33.410 ,7,0,3.,24.0,0.,24.0,0.,24.0,0.,24.0
1979-07-29 13:06:57.410 ,7,0,28.,24.0,0.,24.0,3.,24.0,0.,24.0
1979-07-29 13:07:21.410 ,5,1,12.,24.0,0.,24.0,2.,24.0,0.,24.0
1979-07-29 13:07:45.410 ,1,1,0.,24.0,0.,24.0,2.,24.0,0.,24.0
1979-07-29 13:08:09.410 ,2,1,0.,24.0,0.,24.0,1.,24.0,0.,24.0
1979-07-29 13:08:33.410 ,6,1,0.,24.0,0.,24.0,1.,24.0,0.,24.0
1979-07-29 13:08:57.410 ,5,1,13.,24.0,1.,24.0,2.,24.0,0.,24.0
1979-07-29 13:09:21.410 ,1,1,1.,24.0,0.,24.0,1.,24.0,0.,24.0
1979-07-29 13:09:45.410 ,2,1,0.,24.0,0.,24.0,1.,24.0,0.,24.0
1979-07-29 13:10:09.410 ,6,1,0.,24.0,0.,24.0,2.,24.0,0.,24.0
1979-07-29 13:10:33.410 ,5,1,14.,24.0,0.,24.0,1.,24.0,0.,24.0
1979-07-29 13:10:57.410 ,1,1,0.,24.0,0.,24.0,2.,24.0,0.,24.0
1979-07-29 13:11:21.410 ,2,1,0.,24.0,0.,24.0,0.,24.0,0.,24.0
1979-07-29 13:11:45.410 ,6,1,0.,24.0,0.,24.0,0.,24.0,0.,24.0
1979-07-29 13:12:09.410 ,5,1,14.,24.0,0.,24.0,1.,24.0,0.,24.0
1979-07-29 13:12:33.410 ,1,1,0.,24.0,0.,24.0,2.,24.0,0.,24.0
1979-07-29 13:12:57.410 ,2,1,0.,24.0,0.,24.0,2.,24.0,0.,24.0
1979-07-29 13:13:21.410 ,6,1,0.,24.0,0.,24.0,0.,24.0,0.,24.0
1979-07-29 13:13:45.410 ,5,1,9.,24.0,0.,24.0,0.,24.0,0.,24.0
1979-07-29 13:14:09.410 ,1,1,0.,24.0,0.,24.0,2.,24.0,0.,24.0
1979-07-29 13:14:33.410 ,2,1,0.,24.0,0.,24.0,0.,24.0,0.,24.0
1979-07-29 13:14:57.410 ,6,1,1.,24.0,0.,24.0,1.,24.0,0.,24.0
1979-07-29 13:15:21.410 ,5,1,16.,24.0,0.,24.0,0.,24.0,0.,24.0
1979-07-29 13:15:45.410 ,1,1,0.,24.0,0.,24.0,3.,24.0,0.,24.0
1979-07-29 13:16:09.410 ,2,1,0.,24.0,0.,24.0,1.,24.0,0.,24.0
1979-07-29 13:16:33.410 ,6,1,0.,24.0,0.,24.0,2.,24.0,0.,24.0
1979-07-29 13:16:57.410 ,5,1,16.,24.0,0.,24.0,1.,24.0,0.,24.0
1979-07-29 13:17:21.410 ,1,1,0.,24.0,0.,24.0,2.,24.0,0.,24.0
1979-07-29 13:17:45.410 ,0,0,2.,24.0,0.,24.0,1.,24.0,0.,24.0
1979-07-29 13:18:09.410 ,0,0,0.,24.0,0.,24.0,1.,24.0,0.,24.0
1979-07-29 13:18:33.410 ,5,1,10.,24.0,1.,24.0,3.,24.0,0.,24.0
1979-07-29 13:18:57.410 ,5,0,0.,24.0,0.,24.0,1.,24.0,0.,24.0
1979-07-29 13:19:21.410 ,4,1,0.,24.0,0.,24.0,1.,24.0,0.,24.0
1979-07-29 13:19:45.410 ,4,0,0.,24.0,0.,24.0,0.,24.0,0.,24.0
1979-07-29 13:20:09.410 ,3,1,0.,24.0,0.,24.0,1.,24.0,0.,24.0
1979-07-29 13:20:33.410 ,3,0,0.,24.0,0.,24.0,2.,24.0,0.,24.0
1979-07-29 13:20:57.410 ,2,1,0.,24.0,0.,24.0,0.,24.0,0.,24.0
1979-07-29 13:21:21.410 ,2,0,0.,24.0,0.,24.0,1.,24.0,0.,24.0
1979-07-29 13:21:45.410 ,1,1,0.,24.0,0.,24.0,0.,24.0,0.,24.0
1979-07-29 13:22:09.410 ,1,0,0.,24.0,0.,24.0,4.,24.0,0.,24.0
1979-07-29 13:22:33.410 ,0,1,1.,24.0,0.,24.0,1.,24.0,0.,24.0
1979-07-29 13:22:57.410 ,0,0,0.,24.0,0.,24.0,1.,24.0,0.,24.0
1979-07-29 13:23:21.410 ,0,1,0.,24.0,0.,24.0,2.,24.0,0.,24.0
1979-07-29 13:23:45.410 ,0,0,0.,24.0,0.,24.0,2.,24.0,0.,24.0
1979-07-29 13:24:09.410 ,1,1,0.,24.0,0.,24.0,1.,24.0,0.,24.0
1979-07-29 13:24:33.410 ,1,0,0.,24.0,0.,24.0,4.,24.0,0.,24.0
1979-07-29 13:24:57.410 ,2,1,1.,24.0,0.,24.0,3.,24.0,0.,24.0
1979-07-29 13:25:21.410 ,2,0,0.,24.0,1.,24.0,0.,24.0,0.,24.0
1979-07-29 13:25:45.410 ,3,1,0.,24.0,0.,24.0,1.,24.0,0.,24.0
1979-07-29 13:26:09.410 ,3,0,0.,24.0,0.,24.0,1.,24.0,0.,24.0
1979-07-29 13:26:33.410 ,4,1,0.,24.0,0.,24.0,0.,24.0,0.,24.0
1979-07-29 13:26:57.410 ,4,0,0.,24.0,0.,24.0,2.,24.0,0.,24.0
1979-07-29 13:28:09.410 ,0,0,0.,24.0,0.,24.0,1.,24.0,0.,24.0
1979-07-29 13:28:33.410 ,0,0,0.,24.0,0.,24.0,1.,24.0,0.,24.0
1979-07-29 13:28:57.410 ,7,1,5.,24.0,0.,24.0,3.,24.0,0.,24.0
1979-07-29 13:29:21.410 ,7,0,32.,24.0,0.,24.0,0.,24.0,0.,24.0
1979-07-29 13:29:45.410 ,7,1,25.,24.0,0.,24.0,2.,24.0,0.,24.0
1979-07-29 13:30:09.410 ,7,0,37.,24.0,0.,24.0,0.,24.0,0.,24.0
1979-07-29 13:30:33.410 ,6,1,27.,24.0,0.,24.0,1.,24.0,0.,24.0
1979-07-29 13:30:57.410 ,6,0,0.,24.0,0.,24.0,2.,24.0,0.,24.0
1979-07-29 13:31:21.410 ,5,1,0.,24.0,0.,24.0,0.,24.0,0.,24.0
1979-07-29 13:31:45.410 ,5,0,0.,24.0,0.,24.0,1.,24.0,0.,24.0
1979-07-29 13:32:09.410 ,4,1,0.,24.0,0.,24.0,0.,24.0,0.,24.0
1979-07-29 13:32:33.410 ,4,0,0.,24.0,0.,24.0,1.,24.0,0.,24.0
1979-07-29 13:32:57.410 ,3,1,0.,24.0,0.,24.0,0.,24.0,0.,24.0
1979-07-29 13:33:21.410 ,3,0,0.,24.0,0.,24.0,0.,24.0,0.,24.0
1979-07-29 13:33:45.410 ,2,1,0.,24.0,0.,24.0,0.,24.0,0.,24.0
1979-07-29 13:34:09.410 ,2,0,0.,24.0,0.,24.0,1.,24.0,0.,24.0
1979-07-29 13:34:33.410 ,1,1,0.,24.0,0.,24.0,1.,24.0,0.,24.0
1979-07-29 13:34:57.410 ,1,0,0.,24.0,0.,24.0,3.,24.0,0.,24.0
1979-07-29 13:35:21.410 ,0,1,0.,24.0,0.,24.0,3.,24.0,0.,24.0
1979-07-29 13:35:45.410 ,0,0,0.,24.0,0.,24.0,2.,24.0,0.,24.0
1979-07-29 13:36:09.410 ,0,1,0.,24.0,0.,24.0,1.,24.0,0.,24.0
1979-07-29 13:36:33.410 ,0,0,0.,24.0,0.,24.0,2.,24.0,0.,24.0
1979-07-29 13:36:57.410 ,1,1,0.,24.0,1.,24.0,2.,24.0,0.,24.0
1979-07-29 13:37:21.410 ,1,0,0.,24.0,0.,24.0,0.,24.0,0.,24.0
1979-07-29 13:37:45.410 ,2,1,1.,24.0,0.,24.0,1.,24.0,0.,24.0
1979-07-29 13:38:09.410 ,2,0,0.,24.0,0.,24.0,1.,24.0,0.,24.0
1979-07-29 13:38:33.410 ,3,1,0.,24.0,0.,24.0,1.,24.0,0.,24.0
1979-07-29 13:38:57.410 ,3,0,0.,24.0,0.,24.0,1.,24.0,0.,24.0
1979-07-29 13:39:21.410 ,4,1,0.,24.0,0.,24.0,1.,24.0,0.,24.0
1979-07-29 13:39:45.410 ,4,0,0.,24.0,0.,24.0,0.,24.0,0.,24.0
1979-07-29 13:40:09.410 ,5,1,0.,24.0,1.,24.0,1.,24.0,0.,24.0
1979-07-29 13:40:33.410 ,5,0,1.,24.0,0.,24.0,2.,24.0,0.,24.0
1979-07-29 13:40:57.410 ,6,1,0.,24.0,0.,24.0,2.,24.0,0.,24.0
1979-07-29 13:41:21.410 ,6,0,0.,24.0,0.,24.0,2.,24.0,0.,24.0
1979-07-29 13:41:45.410 ,7,1,10.,24.0,0.,24.0,0.,24.0,0.,24.0
1979-07-29 13:42:09.410 ,7,0,31.,24.0,0.,24.0,1.,24.0,0.,24.0
1979-07-29 13:42:33.410 ,7,1,22.,24.0,0.,24.0,5.,24.0,0.,24.0
1979-07-29 13:42:57.410 ,7,0,30.,24.0,0.,24.0,2.,24.0,0.,24.0
1979-07-29 13:43:21.410 ,6,1,31.,24.0,0.,24.0,2.,24.0,0.,24.0
1979-07-29 13:44:09.410 ,5,1,0.,24.0,0.,24.0,3.,24.0,0.,24.0
1979-07-29 13:44:33.410 ,5,0,0.,24.0,0.,24.0,3.,24.0,0.,24.0
1979-07-29 13:44:57.410 ,4,1,0.,24.0,0.,24.0,2.,24.0,0.,24.0
1979-07-29 13:45:21.410 ,4,0,0.,24.0,0.,24.0,0.,24.0,0.,24.0
1979-07-29 13:45:45.410 ,3,1,0.,24.0,0.,24.0,1.,24.0,0.,24.0
1979-07-29 13:46:09.410 ,3,0,0.,24.0,0.,24.0,0.,24.0,0.,24.0
1979-07-29 13:46:33.410 ,2,1,0.,24.0,0.,24.0,2.,24.0,0.,24.0
1979-07-29 13:46:57.410 ,2,0,0.,24.0,0.,24.0,1.,24.0,0.,24.0
1979-07-29 13:47:21.410 ,1,1,0.,24.0,0.,24.0,3.,24.0,0.,24.0
1979-07-29 13:47:45.410 ,1,0,0.,24.0,0.,24.0,0.,24.0,0.,24.0
1979-07-29 13:48:09.410 ,0,1,0.,24.0,0.,24.0,1.,24.0,0.,24.0
1979-07-29 13:48:33.410 ,0,0,0.,24.0,0.,24.0,2.,24.0,0.,24.0
1979-07-29 13:48:57.410 ,0,1,0.,24.0,0.,24.0,1.,24.0,0.,24.0
1979-07-29 13:49:21.410 ,0,0,0.,24.0,0.,24.0,1.,24.0,0.,24.0
1979-07-29 13:49:45.410 ,1,1,0.,24.0,0.,24.0,3.,24.0,0.,24.0
1979-07-29 13:50:09.410 ,1,0,0.,24.0,0.,24.0,5.,24.0,0.,24.0
1979-07-29 13:50:33.410 ,2,1,0.,24.0,0.,24.0,2.,24.0,0.,24.0
1979-07-29 13:50:57.410 ,2,0,0.,24.0,0.,24.0,1.,24.0,0.,24.0
1979-07-29 13:51:21.410 ,3,1,0.,24.0,0.,24.0,1.,24.0,0.,24.0
1979-07-29 13:51:45.410 ,3,0,0.,24.0,0.,24.0,3.,24.0,0.,24.0
1979-07-29 13:52:09.410 ,4,1,0.,24.0,0.,24.0,2.,24.0,0.,24.0
1979-07-29 13:52:33.410 ,4,0,0.,24.0,0.,24.0,1.,24.0,0.,24.0
1979-07-29 13:52:57.410 ,5,1,0.,24.0,0.,24.0,1.,24.0,0.,24.0
1979-07-29 13:53:21.410 ,5,0,0.,24.0,0.,24.0,1.,24.0,0.,24.0
1979-07-29 13:53:45.410 ,6,1,0.,24.0,0.,24.0,1.,24.0,0.,24.0
1979-07-29 13:54:09.410 ,6,0,0.,24.0,0.,24.0,0.,24.0,0.,24.0
1979-07-29 13:54:33.410 ,7,0,8.,24.0,0.,24.0,0.,24.0,0.,24.0
1979-07-29 13:54:57.410 ,7,0,34.,24.0,0.,24.0,5.,24.0,0.,24.0
1979-07-29 13:55:21.410 ,5,1,15.,24.0,0.,24.0,0.,24.0,0.,24.0
1979-07-29 13:55:45.410 ,1,1,0.,24.0,0.,24.0,2.,24.0,0.,24.0
1979-07-29 13:56:09.410 ,2,1,0.,24.0,0.,24.0,1.,24.0,0.,24.0
1979-07-29 13:56:33.410 ,6,1,0.,24.0,0.,24.0,2.,24.0,0.,24.0
1979-07-29 13:56:57.410 ,5,1,8.,24.0,0.,24.0,1.,24.0,0.,24.0
1979-07-29 13:57:21.410 ,1,1,0.,24.0,0.,24.0,2.,24.0,0.,24.0
1979-07-29 13:57:45.410 ,2,1,1.,24.0,0.,24.0,1.,24.0,0.,24.0
1979-07-29 13:58:09.410 ,6,1,0.,24.0,0.,24.0,0.,24.0,0.,24.0
1979-07-29 13:58:33.410 ,5,1,25.,24.0,0.,24.0,0.,24.0,0.,24.0
1979-07-29 13:58:57.410 ,1,1,0.,24.0,0.,24.0,0.,24.0,0.,24.0
1979-07-29 13:59:21.410 ,2,1,0.,24.0,0.,24.0,2.,24.0,0.,24.0
1979-07-29 13:59:45.410 ,6,1,0.,24.0,0.,24.0,2.,24.0,0.,24.0
1979-07-29 14:00:09.400 ,5,1,15.,24.0,0.,24.0,1.,24.0,0.,24.0
1979-07-29 14:00:33.410 ,1,1,0.,24.0,0.,24.0,0.,24.0,0.,24.0
1979-07-29 14:01:21.410 ,6,1,0.,24.0,0.,24.0,0.,24.0,0.,24.0
1979-07-29 14:01:45.410 ,5,1,15.,24.0,0.,24.0,0.,24.0,0.,24.0
1979-07-29 14:02:09.400 ,1,1,1.,24.0,0.,24.0,1.,24.0,0.,24.0
1979-07-29 14:02:33.400 ,2,1,0.,24.0,0.,24.0,1.,24.0,0.,24.0
1979-07-29 14:02:57.400 ,6,1,0.,24.0,0.,24.0,0.,24.0,0.,24.0
1979-07-29 14:03:21.400 ,5,1,16.,24.0,0.,24.0,2.,24.0,0.,24.0
1979-07-29 14:03:45.400 ,1,1,1.,24.0,0.,24.0,2.,24.0,0.,24.0
1979-07-29 14:04:33.410 ,6,1,0.,24.0,0.,24.0,0.,24.0,0.,24.0
1979-07-29 14:04:57.410 ,5,1,10.,24.0,0.,24.0,0.,24.0,0.,24.0
1979-07-29 14:05:21.410 ,1,1,0.,24.0,0.,24.0,2.,24.0,0.,24.0
1979-07-29 14:05:45.410 ,0,0,0.,24.0,0.,24.0,1.,24.0,0.,24.0
1979-07-29 14:06:09.400 ,0,0,0.,24.0,0.,24.0,2.,24.0,0.,24.0
1979-07-29 14:06:33.410 ,5,1,18.,24.0,0.,24.0,1.,24.0,0.,24.0
1979-07-29 14:06:57.410 ,5,0,0.,24.0,0.,24.0,0.,24.0,0.,24.0
1979-07-29 14:07:21.410 ,4,1,1.,24.0,0.,24.0,1.,24.0,0.,24.0
1979-07-29 14:07:45.410 ,4,0,0.,24.0,0.,24.0,0.,24.0,0.,24.0
1979-07-29 14:08:09.400 ,3,1,0.,24.0,0.,24.0,2.,24.0,0.,24.0
1979-07-29 14:08:33.410 ,3,0,0.,24.0,0.,24.0,3.,24.0,0.,24.0
1979-07-29 14:08:57.400 ,2,1,0.,24.0,0.,24.0,0.,24.0,0.,24.0
1979-07-29 14:09:21.400 ,2,0,0.,24.0,0.,24.0,3.,24.0,0.,24.0
1979-07-29 14:09:45.400 ,1,1,0.,24.0,1.,24.0,1.,24.0,0.,24.0
1979-07-29 14:10:09.400 ,1,0,0.,24.0,0.,24.0,2.,24.0,0.,24.0
1979-07-29 14:10:57.400 ,0,0,0.,24.0,0.,24.0,0.,24.0,0.,24.0
1979-07-29 14:11:21.400 ,0,1,0.,24.0,0.,24.0,1.,24.0,0.,24.0
1979-07-29 14:11:45.400 ,0,0,0.,24.0,0.,24.0,0.,24.0,0.,24.0
1979-07-29 14:12:09.400 ,1,1,0.,24.0,1.,24.0,1.,24.0,0.,24.0
1979-07-29 14:12:33.400 ,1,0,0.,24.0,0.,24.0,2.,24.0,0.,24.0
1979-07-29 14:12:57.400 ,2,1,0.,24.0,0.,24.0,0.,24.0,0.,24.0
1979-07-29 14:13:21.400 ,2,0,1.,24.0,0.,24.0,2.,24.0,0.,24.0
1979-07-29 14:14:09.400 ,3,0,0.,24.0,1.,24.0,2.,24.0,0.,24.0
1979-07-29 14:14:33.400 ,4,1,0.,24.0,0.,24.0,3.,24.0,0.,24.0
1979-07-29 14:14:57.400 ,4,0,0.,24.0,0.,24.0,1.,24.0,0.,24.0
1979-07-29 14:15:21.400 ,5,1,0.,24.0,0.,24.0,1.,24.0,0.,24.0
1979-07-29 14:15:45.400 ,5,0,0.,24.0,0.,24.0,2.,24.0,0.,24.0
1979-07-29 14:16:09.400 ,6,1,0.,24.0,0.,24.0,3.,24.0,0.,24.0
1979-07-29 14:16:33.400 ,6,0,0.,24.0,0.,24.0,3.,24.0,0.,24.0
1979-07-29 14:16:57.400 ,7,1,8.,24.0,1.,24.0,0.,24.0,0.,24.0
1979-07-29 14:17:21.400 ,7,0,35.,24.0,0.,24.0,2.,24.0,0.,24.0
1979-07-29 14:17:45.400 ,7,1,32.,24.0,0.,24.0,0.,24.0,0.,24.0
1979-07-29 14:18:09.400 ,7,0,30.,24.0,0.,24.0,2.,24.0,0.,24.0
1979-07-29 14:18:33.400 ,6,1,29.,24.0,0.,24.0,1.,24.0,0.,24.0
1979-07-29 14:18:57.400 ,6,0,0.,24.0,0.,24.0,0.,24.0,0.,24.0
1979-07-29 14:19:21.400 ,5,1,1.,24.0,0.,24.0,1.,24.0,0.,24.0
1979-07-29 14:19:45.400 ,5,0,0.,24.0,0.,24.0,1.,24.0,0.,24.0
1979-07-29 14:20:09.400 ,4,1,0.,24.0,0.,24.0,2.,24.0,0.,24.0
1979-07-29 14:20:33.400 ,4,0,0.,24.0,0.,24.0,1.,24.0,0.,24.0
1979-07-29 14:20:57.400 ,3,1,0.,24.0,0.,24.0,2.,24.0,0.,24.0
1979-07-29 14:21:21.400 ,3,0,0.,24.0,0.,24.0,1.,24.0,0.,24.0
1979-07-29 14:21:45.400 ,2,1,0.,24.0,0.,24.0,0.,24.0,0.,24.0
1979-07-29 14:22:09.400 ,2,0,0.,24.0,0.,24.0,0.,24.0,0.,24.0
1979-07-29 14:22:33.400 ,1,1,1.,24.0,0.,24.0,1.,24.0,0.,24.0
1979-07-29 14:22:57.400 ,1,0,0.,24.0,0.,24.0,4.,24.0,0.,24.0
1979-07-29 14:23:21.400 ,0,1,0.,24.0,0.,24.0,3.,24.0,0.,24.0
1979-07-29 14:23:45.400 ,0,0,0.,24.0,0.,24.0,1.,24.0,0.,24.0
1979-07-29 14:24:09.400 ,0,1,0.,24.0,0.,24.0,3.,24.0,0.,24.0
1979-07-29 14:24:33.400 ,0,0,0.,24.0,0.,24.0,1.,24.0,0.,24.0
1979-07-29 14:24:57.400 ,1,1,0.,24.0,0.,24.0,2.,24.0,0.,24.0
1979-07-29 14:25:45.400 ,2,1,0.,24.0,0.,24.0,2.,24.0,0.,24.0
1979-07-29 14:26:09.400 ,2,0,0.,24.0,0.,24.0,4.,24.0,0.,24.0
1979-07-29 14:26:33.400 ,3,1,1.,24.0,0.,24.0,2.,24.0,0.,24.0
1979-07-29 14:26:57.400 ,3,0,0.,24.0,0.,24.0,0.,24.0,0.,24.0
1979-07-29 14:27:21.400 ,4,1,0.,24.0,0.,24.0,2.,24.0,0.,24.0
1979-07-29 14:27:45.400 ,4,0,0.,24.0,1.,24.0,1.,24.0,0.,24.0
1979-07-29 14:28:09.400 ,5,1,0.,24.0,0.,24.0,2.,24.0,0.,24.0
1979-07-29 14:28:33.400 ,5,0,0.,24.0,0.,24.0,1.,24.0,0.,24.0
1979-07-29 14:29:21.400 ,6,0,0.,24.0,0.,24.0,1.,24.0,0.,24.0
1979-07-29 14:30:09.400 ,7,0,32.,24.0,0.,24.0,3.,24.0,0.,24.0
1979-07-29 14:30:33.400 ,7,1,30.,24.0,0.,24.0,0.,24.0,0.,24.0
1979-07-29 14:30:57.400 ,7,0,30.,24.0,0.,24.0,1.,24.0,0.,24.0
1979-07-29 14:31:21.400 ,6,1,26.,24.0,1.,24.0,0.,24.0,0.,24.0
1979-07-29 14:31:45.400 ,6,0,0.,24.0,0.,24.0,2.,24.0,0.,24.0
1979-07-29 14:32:09.400 ,5,1,1.,24.0,0.,24.0,0.,24.0,0.,24.0
1979-07-29 14:32:33.400 ,5,0,0.,24.0,0.,24.0,0.,24.0,0.,24.0
1979-07-29 14:32:57.400 ,4,1,0.,24.0,0.,24.0,2.,24.0,0.,24.0
1979-07-29 14:33:21.400 ,4,0,0.,24.0,0.,24.0,1.,24.0,0.,24.0
1979-07-29 14:33:45.400 ,3,1,0.,24.0,0.,24.0,3.,24.0,0.,24.0
1979-07-29 14:34:09.400 ,3,0,0.,24.0,1.,24.0,0.,24.0,0.,24.0
1979-07-29 14:34:33.400 ,2,1,0.,24.0,0.,24.0,1.,24.0,0.,24.0
1979-07-29 14:34:57.400 ,2,0,0.,24.0,0.,24.0,1.,24.0,0.,24.0
1979-07-29 14:35:21.400 ,1,1,0.,24.0,0.,24.0,4.,24.0,0.,24.0
1979-07-29 14:35:45.400 ,1,0,0.,24.0,0.,24.0,0.,24.0,0.,24.0
1979-07-29 14:36:09.400 ,0,1,0.,24.0,0.,24.0,2.,24.0,0.,24.0
1979-07-29 14:36:33.400 ,0,0,0.,24.0,0.,24.0,1.,24.0,0.,24.0
1979-07-29 14:36:57.400 ,0,1,0.,24.0,0.,24.0,3.,24.0,0.,24.0
1979-07-29 14:37:21.400 ,0,0,0.,24.0,0.,24.0,0.,24.0,0.,24.0
1979-07-29 14:37:45.400 ,1,1,1.,24.0,0.,24.0,3.,24.0,0.,24.0
1979-07-29 14:38:09.400 ,1,0,0.,24.0,0.,24.0,0.,24.0,0.,24.0
1979-07-29 14:38:33.400 ,2,1,0.,24.0,0.,24.0,0.,24.0,0.,24.0
1979-07-29 14:38:57.400 ,2,0,0.,24.0,0.,24.0,0.,24.0,0.,24.0